User: anonymous   Login
Location: Unspecified
(33.6682°S, 0.0000°E)
Time: 00:14:03
(UTC+00:00)
Language:

Vanguard 1 - Orbit

View from above orbital plane
View from above orbital plane
View from above satellite
View from above satellite

Ground track
Ground track

The orbit data is extracted from the following two-line orbital elements,

1     5U 58002B   19287.30797851  .00000127  00000-0  15755-3 0  9993
2     5  34.2521 269.6371 1842852 320.2170  27.6561 10.84773989178518
Epoch (UTC): 14 October 2019 07:23:29
Eccentricity: 0.1842852
inclination: 34.2521°
perigee height: 653 km
apogee height: 3830 km
right ascension of ascending node: 269.6371°
argument of perigee: 320.2170°
revolutions per day: 10.84773989
mean anomaly at epoch: 27.6561°
orbit number at epoch: 17851

The dashed part of the orbit path shows where the satellite is in the earth's shadow,  

DLR